Вернуться в каталог

EKRAN 16

АктивенСвязьGEO
NORAD 18328·PAYLOAD·🇷🇺 Russia

Запущен Sep 3, 1987 с Baikonur Cosmodrome

Loading…

TLE

СвежийSource: Space-Track

Эпоха: Sep 10, 2026, 15:14 UTC

1 18328U 87073A   26253.63516984 -.00000105  00000-0  00000+0 0  9993
2 18328  12.1377 327.3680 0005830 280.0897  72.5180  0.96484096137835

Отслеживайте EKRAN 16 в реальном времени с AllMySat

Download on the App Store